This is the latest recevied weather packets stored in our database for station/object DB0LS-15. If no packets are shown the sender has not sent any weather packets the latest 10 day(s).
| Time | Temp. | Humidity | Pressure | Rain* | Wind** | Luminosity | Snow |
|---|---|---|---|---|---|---|---|
| 1777386652 | 13.89° C | 30% | 1006.5 hPa | 0 mm | - | - | - |
| 1777386043 | 13.89° C | 30% | 1006.6 hPa | 0 mm | - | - | - |
| 1777385433 | 14.44° C | 31% | 1006.5 hPa | 0 mm | - | - | - |
| 1777384220 | 13.89° C | 28% | 1006.7 hPa | 0 mm | - | - | - |
| 1777383067 | 13.89° C | 29% | 1006.7 hPa | 0 mm | - | - | - |
| 1777382464 | 13.89° C | 29% | 1006.8 hPa | 0 mm | - | - | - |
| 1777381854 | 13.89° C | 30% | 1006.8 hPa | 0 mm | - | - | - |
| 1777380642 | 13.33° C | 30% | 1006.9 hPa | 0 mm | - | - | - |
| 1777378822 | 13.33° C | 33% | 1007 hPa | 0 mm | - | - | - |
| 1777378218 | 13.33° C | 35% | 1007.1 hPa | 0 mm | - | - | - |
| 1777376457 | 12.78° C | 37% | 1007.3 hPa | 0 mm | - | - | - |
| 1777374640 | 12.22° C | 39% | 1007.3 hPa | 0 mm | - | - | - |
| 1777374030 | 12.22° C | 39% | 1007.3 hPa | 0 mm | - | - | - |
| 1777372268 | 11.67° C | 42% | 1007.3 hPa | 0 mm | - | - | - |
| 1777371664 | 12.22° C | 42% | 1007.4 hPa | 0 mm | - | - | - |
| 1777371055 | 11.67° C | 43% | 1007.3 hPa | 0 mm | - | - | - |
| 1777370446 | 11.67° C | 44% | 1007.4 hPa | 0 mm | - | - | - |
| 1777369842 | 11.67° C | 43% | 1007.4 hPa | 0 mm | - | - | - |
| 1777369234 | 11.67° C | 43% | 1007.5 hPa | 0 mm | - | - | - |
| 1777368630 | 11.11° C | 44% | 1007.5 hPa | 0 mm | - | - | - |
| 1777368021 | 10.56° C | 46% | 1007.6 hPa | 0 mm | - | - | - |
| 1777367418 | 10.56° C | 45% | 1007.5 hPa | 0 mm | - | - | - |
| 1777365657 | 10.56° C | 45% | 1007.3 hPa | 0 mm | - | - | - |
| 1777365053 | 10.56° C | 44% | 1007.4 hPa | 0 mm | - | - | - |
| 1777364158 | - | - | 1007.6 hPa | 0 mm | - | - | - |
* Rain latest hour (hover to see other rain measurements)
** Current wind speed in m/s (hover to see current wind gust speed)